OPS 4682 DEB, 55121

Orbit data source: Space-Track

OPS 4682 DEB, 55121 is space debris in LEO originally from a launch on Sat, 03 Apr 1965 UTC launched from the Air Force Western Test Range (AFWTR). Debris objects in space refer to the collection of defunct objects orbiting the Earth. Examples of debris include non-operational satellites, rocket bodies, and fragments generated from explosions, collisions, or faulty payload assembly.

Loading next visibility...
Identifier
55121, 1965-027HL
Orbit
LEO
Country
Flag of USUS
Related business
Manufacturer
Unknown
Mission
Spacecraft
Bus & Motor
Unknown
Mass
Unknown
Launch date (UTC)
1965-04-03 (61 years ago)
Launch vehicle
Unknown
Launch site
Air Force Western Test Range (AFWTR)
Object type
Payload
Rocket body
Debris
Shape & HBR
Unknown shape, 0.1 m
Radar Cross Section
Medium (>0.1 m² and <1 m²)

Expand to show TLE details & history
Last TLE update: 6 hours ago

TLE from 6 hours ago
0 OPS 4682 DEB
1 55121U 65027HL  26263.55982880 -.00000663  00000-0 -21806-2 0  9994
2 55121  90.2479   8.7888 0036939  80.7687 279.7611 13.01322464466029
Epoch: 2026-09-20T13:26Z
TLE epoch observation values (Epoch: 2026-09-20T13:26:09.208Z)
Latitude
-0.00002°
Longitude
167.79817°
Altitude
1,255.114 km
Speed
7.23 km/s
True Right ascension
00h 35m 09s
True Declination
0° 00' 00"
Sunlit
Object was in full shadow at epoch
Visualization orbit readout
Latitude
Unknown
Longitude
Unknown
Altitude
Unknown
Speed
Unknown
Apparent Right ascension
Unknown
Apparent Declination
Unknown
Sunlit
N/A
Visualization observer readout
Local Sidereal Time
11:58:24
Azimuth
Unknown
Elevation
Unknown
Doppler factor
Unknown
Orbital elements
Apogee altitude
1,282.227 km
Perigee altitude
1,225.842 km
Semi-major axis
7,632.172 km
Eccentricity
0.00369
Inclination
90.2479°
RAAN
8.7888°
Arg. of periapsis
80.7687°
True anomaly
279.34361°
Mean anomaly
279.7611°
Eccentric anomaly
279.55239°
Mean motion
3.25515 °/min
Orbital period
110.59 mins
BSTAR
-0.0021806
Loading maneuver chart data...
Computing Atmospheric mass density...
Loading historical data...
Loading historical data...
Loading historical data...
Loading historical data...
Loading historical data...
Loading historical data...
Loading historical data...

Documentation

Showing up to 5 results
|